Time,TemperatureF,DewpointF,PressureIn,WindDirection,WindDirectionDegrees,WindSpeedMPH,WindSpeedGustMPH,Humidity,HourlyPrecipIn,Conditions,Clouds,dailyrainin,SolarRadiationWatts/m^2,SoftwareType,DateUTC
2013-04-13 00:12:00,40.0,39.0,29.77,NNE,20,18.0,22.0,94,0.00,,,0.00,0,weatherlink.com 1.10,2013-04-13 04:12:00,
2013-04-13 00:27:00,39.8,38.0,29.79,NE,40,15.0,21.0,94,0.00,,,0.00,0,weatherlink.com 1.10,2013-04-13 04:27:00,
2013-04-13 00:42:00,39.8,38.0,29.78,NE,37,17.0,22.0,93,0.00,,,0.00,0,weatherlink.com 1.10,2013-04-13 04:42:00,
2013-04-13 00:57:00,39.7,38.0,29.78,NE,39,13.0,23.0,93,0.00,,,0.00,0,weatherlink.com 1.10,2013-04-13 04:57:00,
2013-04-13 01:12:00,39.7,38.0,29.77,NE,44,9.0,21.0,93,0.00,,,0.00,0,weatherlink.com 1.10,2013-04-13 05:12:00,
2013-04-13 01:27:00,39.6,38.0,29.78,NNE,32,15.0,25.0,93,0.00,,,0.00,0,weatherlink.com 1.10,2013-04-13 05:27:00,
2013-04-13 01:42:00,39.5,38.0,29.77,NNE,18,13.0,25.0,93,0.00,,,0.00,0,weatherlink.com 1.10,2013-04-13 05:42:00,
2013-04-13 01:57:00,39.4,38.0,29.78,NE,40,17.0,25.0,93,0.00,,,0.00,0,weatherlink.com 1.10,2013-04-13 05:57:00,
2013-04-13 02:12:00,39.2,37.0,29.77,NE,51,11.0,22.0,93,0.00,,,0.00,0,weatherlink.com 1.10,2013-04-13 06:12:00,
2013-04-13 02:27:00,39.1,37.0,29.79,NNE,15,11.0,20.0,92,0.00,,,0.00,0,weatherlink.com 1.10,2013-04-13 06:27:00,
2013-04-13 02:42:00,39.0,37.0,29.79,North,360,12.0,19.0,93,0.00,,,0.00,0,weatherlink.com 1.10,2013-04-13 06:42:00,
2013-04-13 02:57:00,38.9,37.0,29.79,NNE,15,5.0,22.0,93,0.00,,,0.00,0,weatherlink.com 1.10,2013-04-13 06:57:00,
2013-04-13 03:13:00,38.9,37.0,29.80,NNW,346,6.0,14.0,93,0.00,,,0.00,0,weatherlink.com 1.10,2013-04-13 07:13:00,
2013-04-13 03:28:00,38.8,37.0,29.78,NNE,16,8.0,18.0,93,0.00,,,0.00,0,weatherlink.com 1.10,2013-04-13 07:28:00,
2013-04-13 03:42:00,38.9,37.0,29.75,NNE,28,17.0,25.0,93,0.01,,,0.01,0,weatherlink.com 1.10,2013-04-13 07:42:00,
2013-04-13 03:57:00,38.9,37.0,29.75,NE,36,12.0,25.0,93,0.02,,,0.02,0,weatherlink.com 1.10,2013-04-13 07:57:00,
2013-04-13 04:12:00,38.8,37.0,29.76,NE,43,11.0,23.0,93,0.02,,,0.02,0,weatherlink.com 1.10,2013-04-13 08:12:00,
2013-04-13 04:27:00,38.9,37.0,29.76,NE,41,15.0,20.0,92,0.02,,,0.02,0,weatherlink.com 1.10,2013-04-13 08:27:00,
2013-04-13 04:58:00,38.7,37.0,29.77,NNE,31,13.0,25.0,92,0.00,,,0.02,0,weatherlink.com 1.10,2013-04-13 08:58:00,
2013-04-13 05:28:00,38.4,36.0,29.78,North,5,8.0,18.0,91,0.00,,,0.02,0,weatherlink.com 1.10,2013-04-13 09:28:00,
2013-04-13 05:43:00,38.0,36.0,29.78,North,355,4.0,17.0,91,0.00,,,0.02,0,weatherlink.com 1.10,2013-04-13 09:43:00,
2013-04-13 05:58:00,37.6,36.0,29.78,North,5,10.0,16.0,92,0.00,,,0.02,0,weatherlink.com 1.10,2013-04-13 09:58:00,
2013-04-13 06:13:00,37.5,35.0,29.79,North,355,2.0,13.0,92,0.00,,,0.02,0,weatherlink.com 1.10,2013-04-13 10:13:00,
2013-04-13 06:28:00,37.3,36.0,29.79,North,355,5.0,13.0,93,0.00,,,0.02,5,weatherlink.com 1.10,2013-04-13 10:28:00,
2013-04-13 06:43:00,36.9,35.0,29.81,NNW,344,4.0,12.0,93,0.00,,,0.02,7,weatherlink.com 1.10,2013-04-13 10:43:00,
2013-04-13 07:28:00,36.5,35.0,29.82,North,349,0.0,11.0,94,0.00,,,0.02,30,weatherlink.com 1.10,2013-04-13 11:28:00,
2013-04-13 07:43:00,36.6,35.0,29.82,NNW,348,6.0,12.0,94,0.00,,,0.02,51,weatherlink.com 1.10,2013-04-13 11:43:00,
2013-04-13 07:58:00,36.8,35.0,29.82,NNW,346,7.0,9.0,94,0.00,,,0.02,69,weatherlink.com 1.10,2013-04-13 11:58:00,
2013-04-13 08:28:00,37.0,36.0,29.82,North,350,0.0,11.0,94,0.00,,,0.02,58,weatherlink.com 1.10,2013-04-13 12:28:00,
2013-04-13 08:43:00,37.1,35.0,29.83,North,360,7.0,12.0,93,0.00,,,0.02,86,weatherlink.com 1.10,2013-04-13 12:43:00,
2013-04-13 09:43:00,38.3,36.0,29.84,North,360,0.0,9.0,90,0.00,,,0.02,111,weatherlink.com 1.10,2013-04-13 13:43:00,
2013-04-13 09:58:00,38.4,36.0,29.85,NNW,342,2.0,6.0,89,0.00,,,0.02,190,weatherlink.com 1.10,2013-04-13 13:58:00,
2013-04-13 10:13:00,38.7,36.0,29.85,NNW,342,0.0,6.0,88,0.00,,,0.02,162,weatherlink.com 1.10,2013-04-13 14:13:00,
2013-04-13 10:28:00,38.8,35.0,29.85,NNW,342,0.0,6.0,87,0.00,,,0.02,255,weatherlink.com 1.10,2013-04-13 14:28:00,
2013-04-13 11:13:00,40.7,36.0,29.85,NNW,342,0.0,0.0,84,0.00,,,0.02,301,weatherlink.com 1.10,2013-04-13 15:13:00,
2013-04-13 11:28:00,41.1,37.0,29.86,NNW,327,0.0,7.0,84,0.00,,,0.02,264,weatherlink.com 1.10,2013-04-13 15:28:00,
2013-04-13 11:44:00,42.3,37.0,29.85,NNW,329,0.0,5.0,82,0.00,,,0.02,250,weatherlink.com 1.10,2013-04-13 15:44:00,
2013-04-13 11:59:00,43.2,38.0,29.84,NW,313,3.0,6.0,82,0.00,,,0.02,559,weatherlink.com 1.10,2013-04-13 15:59:00,
2013-04-13 12:14:00,44.1,37.0,29.84,NW,316,0.0,6.0,77,0.00,,,0.02,308,weatherlink.com 1.10,2013-04-13 16:14:00,
2013-04-13 12:29:00,45.6,38.0,29.84,NW,316,4.0,5.0,76,0.00,,,0.02,338,weatherlink.com 1.10,2013-04-13 16:29:00,
2013-04-13 12:44:00,45.1,38.0,29.84,NW,317,0.0,4.0,77,0.00,,,0.02,482,weatherlink.com 1.10,2013-04-13 16:44:00,
2013-04-13 13:14:00,43.8,38.0,29.83,NNE,28,6.0,6.0,79,0.00,,,0.02,387,weatherlink.com 1.10,2013-04-13 17:14:00,
2013-04-13 13:29:00,43.9,38.0,29.82,NE,40,5.0,6.0,80,0.00,,,0.02,271,weatherlink.com 1.10,2013-04-13 17:29:00,
2013-04-13 13:44:00,44.2,38.0,29.82,East,88,0.0,10.0,80,0.00,,,0.02,148,weatherlink.com 1.10,2013-04-13 17:44:00,
2013-04-13 13:59:00,44.6,39.0,29.82,East,98,6.0,11.0,80,0.00,,,0.02,130,weatherlink.com 1.10,2013-04-13 17:59:00,
2013-04-13 14:14:00,44.7,39.0,29.81,ESE,107,7.0,9.0,80,0.00,,,0.02,171,weatherlink.com 1.10,2013-04-13 18:14:00,
2013-04-13 14:29:00,44.3,39.0,29.81,ESE,119,8.0,12.0,80,0.00,,,0.02,237,weatherlink.com 1.10,2013-04-13 18:29:00,
2013-04-13 14:44:00,44.7,39.0,29.80,ESE,121,7.0,10.0,81,0.00,,,0.02,216,weatherlink.com 1.10,2013-04-13 18:44:00,
2013-04-13 14:59:00,44.1,39.0,29.81,ESE,123,0.0,10.0,81,0.00,,,0.02,163,weatherlink.com 1.10,2013-04-13 18:59:00,
2013-04-13 15:14:00,44.0,39.0,29.81,ESE,123,8.0,10.0,83,0.00,,,0.02,144,weatherlink.com 1.10,2013-04-13 19:14:00,
2013-04-13 15:29:00,43.9,39.0,29.81,ESE,123,3.0,8.0,83,0.00,,,0.02,120,weatherlink.com 1.10,2013-04-13 19:29:00,
2013-04-13 15:44:00,44.1,40.0,29.81,ESE,123,5.0,9.0,84,0.00,,,0.02,132,weatherlink.com 1.10,2013-04-13 19:44:00,
2013-04-13 15:59:00,43.6,39.0,29.81,ESE,121,7.0,10.0,83,0.00,,,0.02,162,weatherlink.com 1.10,2013-04-13 19:59:00,
2013-04-13 16:14:00,43.5,39.0,29.81,ESE,121,2.0,8.0,84,0.00,,,0.02,146,weatherlink.com 1.10,2013-04-13 20:14:00,
2013-04-13 16:29:00,43.6,39.0,29.82,ESE,121,3.0,10.0,84,0.00,,,0.02,111,weatherlink.com 1.10,2013-04-13 20:29:00,
2013-04-13 16:44:00,43.3,39.0,29.83,ESE,121,9.0,12.0,85,0.00,,,0.02,97,weatherlink.com 1.10,2013-04-13 20:44:00,
2013-04-13 16:59:00,42.9,39.0,29.83,SE,124,6.0,10.0,86,0.00,,,0.02,95,weatherlink.com 1.10,2013-04-13 20:59:00,
2013-04-13 17:14:00,43.1,39.0,29.85,SE,126,3.0,8.0,86,0.00,,,0.02,83,weatherlink.com 1.10,2013-04-13 21:14:00,
2013-04-13 17:29:00,43.0,39.0,29.86,SE,126,2.0,9.0,86,0.00,,,0.02,56,weatherlink.com 1.10,2013-04-13 21:29:00,
2013-04-13 17:44:00,43.4,40.0,29.85,SE,126,7.0,10.0,86,0.00,,,0.02,63,weatherlink.com 1.10,2013-04-13 21:44:00,
2013-04-13 17:59:00,43.8,40.0,29.85,SE,127,6.0,9.0,86,0.00,,,0.02,54,weatherlink.com 1.10,2013-04-13 21:59:00,
2013-04-13 18:14:00,43.8,40.0,29.85,SE,126,2.0,7.0,86,0.00,,,0.02,49,weatherlink.com 1.10,2013-04-13 22:14:00,
2013-04-13 18:29:00,43.8,40.0,29.86,SE,127,0.0,5.0,86,0.00,,,0.02,35,weatherlink.com 1.10,2013-04-13 22:29:00,
2013-04-13 18:44:00,43.6,40.0,29.86,SE,127,0.0,7.0,86,0.00,,,0.02,21,weatherlink.com 1.10,2013-04-13 22:44:00,
2013-04-13 18:59:00,43.5,40.0,29.87,SE,127,4.0,4.0,87,0.00,,,0.02,11,weatherlink.com 1.10,2013-04-13 22:59:00,
2013-04-13 19:14:00,43.7,40.0,29.87,SE,127,0.0,0.0,87,0.00,,,0.02,0,weatherlink.com 1.10,2013-04-13 23:14:00,
2013-04-13 19:29:00,44.0,40.0,29.88,SE,127,0.0,0.0,87,0.00,,,0.02,0,weatherlink.com 1.10,2013-04-13 23:29:00,
2013-04-13 19:59:00,44.0,41.0,29.87,SE,127,0.0,4.0,88,0.00,,,0.02,0,weatherlink.com 1.10,2013-04-13 23:59:00,
2013-04-13 20:14:00,44.0,41.0,29.88,SE,127,0.0,0.0,88,0.00,,,0.02,0,weatherlink.com 1.10,2013-04-14 00:14:00,
2013-04-13 20:29:00,43.9,41.0,29.89,SE,127,0.0,0.0,89,0.00,,,0.02,0,weatherlink.com 1.10,2013-04-14 00:29:00,
2013-04-13 20:44:00,44.0,41.0,29.90,SE,127,0.0,0.0,89,0.00,,,0.02,0,weatherlink.com 1.10,2013-04-14 00:44:00,
2013-04-13 20:59:00,44.1,41.0,29.91,SE,127,0.0,0.0,89,0.00,,,0.02,0,weatherlink.com 1.10,2013-04-14 00:59:00,
2013-04-13 21:14:00,44.3,42.0,29.91,SE,127,0.0,0.0,90,0.00,,,0.02,0,weatherlink.com 1.10,2013-04-14 01:14:00,
2013-04-13 21:29:00,44.3,41.0,29.91,SE,127,0.0,0.0,89,0.00,,,0.02,0,weatherlink.com 1.10,2013-04-14 01:29:00,
2013-04-13 21:44:00,44.3,42.0,29.91,SE,127,0.0,0.0,90,0.00,,,0.02,0,weatherlink.com 1.10,2013-04-14 01:44:00,
2013-04-13 21:59:00,44.3,42.0,29.91,SE,127,0.0,0.0,90,0.00,,,0.02,0,weatherlink.com 1.10,2013-04-14 01:59:00,
2013-04-13 22:14:00,44.4,42.0,29.91,SE,127,0.0,0.0,90,0.00,,,0.02,0,weatherlink.com 1.10,2013-04-14 02:14:00,
2013-04-13 22:29:00,44.4,42.0,29.91,SE,127,0.0,0.0,90,0.00,,,0.02,0,weatherlink.com 1.10,2013-04-14 02:29:00,
2013-04-13 22:44:00,44.5,42.0,29.91,SE,127,0.0,4.0,89,0.00,,,0.02,0,weatherlink.com 1.10,2013-04-14 02:44:00,
2013-04-13 22:59:00,44.7,41.0,29.92,SE,127,0.0,0.0,88,0.00,,,0.02,0,weatherlink.com 1.10,2013-04-14 02:59:00,
2013-04-13 23:14:00,44.8,42.0,29.92,SE,127,3.0,8.0,88,0.00,,,0.02,0,weatherlink.com 1.10,2013-04-14 03:14:00,
2013-04-13 23:29:00,45.1,42.0,29.92,SE,145,5.0,9.0,88,0.00,,,0.02,0,weatherlink.com 1.10,2013-04-14 03:29:00,
2013-04-13 23:44:00,45.2,42.0,29.92,SE,145,0.0,6.0,88,0.00,,,0.02,0,weatherlink.com 1.10,2013-04-14 03:44:00,
2013-04-13 23:59:00,45.2,42.0,29.92,SE,145,0.0,0.0,88,0.00,,,0.00,0,weatherlink.com 1.10,2013-04-14 03:59:00,